This demonstration page uses our WeatherBlox Daily Observations layout. Learn more.

Left ArrowRight Arrow

Hourly Observations for August 17, 2019

Temp ( °F °C ) Dew Point ( °F °C ) Humidity (%) Winds ( mph kmh ) Pressure ( in mb ) Visibility ( mi km ) Precip ( " mm )
12:53 am 00:53 Clear 83 28.3 54 12.2 37 37 WSW 6 9 29.74 1007 10 16 0.00 0.00
1:53 am 01:53 Clear 81 27.2 54 12.2 39 39 ESE 5 7 29.74 1007 10 16 0.00 0.00
2:53 am 02:53 Clear 81 27.2 53 11.7 38 38 SSE 6 9 29.73 1007 10 16 0.00 0.00
3:53 am 03:53 Clear 79 26.1 54 12.2 42 42 SE 5 7 29.72 1007 10 16 0.00 0.00
4:53 am 04:53 Clear 81 27.2 57 13.9 44 44 SSE 12 19 29.70 1006 10 16 0.00 0.00
5:53 am 05:53 Clear 80 26.7 58 14.4 47 47 SSE 10 17 29.69 1005 10 16 0.00 0.00
6:53 am 06:53 Clear 78 25.6 59 15 52 52 SE 9 15 29.70 1006 10 16 0.00 0.00
7:53 am 07:53 Sunny 79 26.1 59 15 50 50 SE 8 13 29.71 1006 10 16 0.00 0.00
8:53 am 08:53 Sunny 84 28.9 60 15.6 44 44 SSE 14 22 29.72 1007 10 16 0.00 0.00
9:53 am 09:53 Sunny 89 31.7 59 15 36 36 SSE 12 19 29.72 1007 10 16 0.00 0.00
10:53 am 10:53 Sunny 93 33.9 55 12.8 28 28 SSW 6 9 29.73 1007 10 16 0.00 0.00
11:53 am 11:53 Sunny 97 36.1 52 11.1 22 22 SSW 8 13 29.72 1007 10 16 0.00 0.00
12:53 pm 12:53 Sunny 99 37.2 50 10 19 19 S 10 17 29.71 1006 10 16 0.00 0.00
1:53 pm 13:53 Sunny 101 38.3 50 10 18 18 SW 12 19 29.68 1005 10 16 0.00 0.00
2:53 pm 14:53 Sunny 103 39.4 48 8.9 16 16 VRB 6 9 29.66 1004 10 16 0.00 0.00
3:53 pm 15:53 Mostly Sunny 105 40.6 45 7.2 13 13 S 12 19 29.63 1003 10 16 0.00 0.00
4:53 pm 16:53 Sunny 100 37.8 52 11.1 20 20 SSW 18 30 29.62 1003 10 16 0.00 0.00
5:53 pm 17:53 Sunny 103 39.4 50 10 17 17 SSW 17 28 29.61 1003 10 16 0.00 0.00
6:53 pm 18:53 Sunny 101 38.3 51 10.6 19 19 S 21 33 29.62 1003 10 16 0.00 0.00
7:53 pm 19:53 Sunny 97 36.1 53 11.7 23 23 S 21 33 29.62 1003 10 16 0.00 0.00
8:53 pm 20:53 Clear 94 34.4 53 11.7 25 25 S 10 17 29.62 1003 10 16 0.00 0.00
9:53 pm 21:53 Clear 91 32.8 53 11.7 27 27 S 8 13 29.65 1004 10 16 0.00 0.00
10:53 pm 22:53 Clear 89 31.7 55 12.8 31 31 SSE 12 19 29.66 1004 10 16 0.00 0.00
11:53 pm 23:53 Clear 86 30 56 13.3 36 36 SSE 9 15 29.67 1005 10 16 0.00 0.00

Powered by AerisWeather